Location: Bottenau
(48.5138°N, 8.0462°E)
Time: 05:40:27
(UTC+00:00)

Cosmos 1603 - Pass Details

Date: 18 April 2021
Orbit: 830 x 860 km, 71.0° (Epoch: 09 May)

Event Time Altitude Azimuth Distance (km) Brightness Sun altitude
Rises 21:41:47 0° 334° (NNW) 3,442 8.2 -26.0°
Reaches altitude 10° 21:44:23 10° 341° (NNW) 2,499 7.1 -26.2°
Maximum altitude 21:49:53 45° 54° (NE) 1,143 4.3 -26.6°
Enters shadow 21:50:37 43° 75° (ENE) 1,179 4.3 -26.6°
